• In Österreich
  • Länderverzeichnis
  • Für 7 Tage
  • Wassertemperatur
  • Satellitenkarten
  • Wetterkarte
  • News
  • Widgets
  • user-avatar
    Anmelden

    Stündliche Wetter Strychy

    Heute, 20 Juli, Freitag

    Zeit Temperatur Niederschläge Wind Luftdruck Luftfeuchtigkeit
    00:00 +17°C° 0 mm 3 m/S 757 mmHg 84%
    01:00 +17°C° 0 mm 3 m/S 757 mmHg 83%
    02:00 +16°C° 0 mm 2 m/S 756 mmHg 83%
    03:00 +16°C° 0 mm 2 m/S 756 mmHg 83%
    04:00 +15°C° 0 mm 2 m/S 756 mmHg 83%
    05:00 +16°C° 0 mm 2 m/S 756 mmHg 78%
    06:00 +18°C° 0 mm 3 m/S 756 mmHg 74%
    07:00 +19°C° 0 mm 3 m/S 756 mmHg 69%
    08:00 +20°C° 0 mm 3 m/S 756 mmHg 63%
    09:00 +22°C° 0 mm 4 m/S 756 mmHg 57%
    10:00 +23°C° 0 mm 4 m/S 756 mmHg 51%
    11:00 +25°C° 0 mm 4 m/S 756 mmHg 49%
    12:00 +26°C° 0 mm 4 m/S 756 mmHg 47%
    13:00 +27°C° 0 mm 4 m/S 756 mmHg 45%
    14:00 +27°C° 0 mm 4 m/S 756 mmHg 45%
    15:00 +27°C° 0 mm 4 m/S 755 mmHg 46%
    16:00 +27°C° 0 mm 4 m/S 755 mmHg 46%
    17:00 +26°C° 0 mm 3 m/S 755 mmHg 52%
    18:00 +25°C° 0 mm 2 m/S 755 mmHg 57%
    19:00 +24°C° 0 mm 2 m/S 755 mmHg 63%
    20:00 +21°C° 0 mm 2 m/S 755 mmHg 67%
    21:00 +19°C° 0 mm 2 m/S 755 mmHg 72%
    22:00 +19°C° 0 mm 1 m/S 756 mmHg 77%
    23:00 +18°C° 0 mm 1 m/S 755 mmHg 78%

    Morgen, 21 Juli, Samstag

    Zeit Temperatur Niederschläge Wind Luftdruck Luftfeuchtigkeit
    00:00 +18°C° 0 mm 1 m/S 755 mmHg 80%
    01:00 +16°C° 0 mm 1 m/S 755 mmHg 82%
    02:00 +15°C° 0 mm 1 m/S 755 mmHg 82%
    03:00 +15°C° 0 mm 1 m/S 755 mmHg 83%
    04:00 +15°C° 0 mm 1 m/S 755 mmHg 83%
    05:00 +16°C° 0 mm 1 m/S 755 mmHg 78%
    06:00 +19°C° 0 mm 1 m/S 755 mmHg 72%
    07:00 +20°C° 0 mm 1 m/S 755 mmHg 66%
    08:00 +22°C° 0 mm 1 m/S 755 mmHg 61%
    09:00 +23°C° 0 mm 2 m/S 755 mmHg 55%
    10:00 +25°C° 0 mm 2 m/S 755 mmHg 50%
    11:00 +25°C° 0 mm 2 m/S 755 mmHg 47%
    12:00 +26°C° 0 mm 2 m/S 755 mmHg 44%
    13:00 +27°C° 0 mm 2 m/S 755 mmHg 41%
    14:00 +27°C° 0 mm 2 m/S 754 mmHg 42%
    15:00 +27°C° 0 mm 2 m/S 754 mmHg 42%
    16:00 +27°C° 0 mm 2 m/S 754 mmHg 43%
    17:00 +26°C° 0 mm 2 m/S 754 mmHg 49%
    18:00 +25°C° 0 mm 2 m/S 754 mmHg 56%
    19:00 +24°C° 0 mm 2 m/S 754 mmHg 62%
    20:00 +21°C° 0 mm 2 m/S 754 mmHg 68%
    21:00 +20°C° 0 mm 2 m/S 755 mmHg 74%
    22:00 +18°C° 0 mm 2 m/S 755 mmHg 80%
    23:00 +18°C° 0 mm 2 m/S 755 mmHg 83%

    übermorgen, 22 Juli, Sonntag

    Zeit Temperatur Niederschläge Wind Luftdruck Luftfeuchtigkeit
    00:00 +18°C° 0 mm 1 m/S 755 mmHg 85%
    01:00 +16°C° 0 mm 1 m/S 755 mmHg 88%
    02:00 +16°C° 0 mm 1 m/S 755 mmHg 89%
    03:00 +16°C° 0 mm 1 m/S 755 mmHg 91%
    04:00 +15°C° 0 mm 1 m/S 754 mmHg 92%
    05:00 +18°C° 0 mm 1 m/S 754 mmHg 85%
    06:00 +19°C° 0 mm 1 m/S 755 mmHg 79%
    07:00 +21°C° 0 mm 1 m/S 755 mmHg 73%
    08:00 +22°C° 0 mm 1 m/S 755 mmHg 66%
    09:00 +24°C° 0 mm 1 m/S 755 mmHg 59%
    10:00 +26°C° 0 mm 1 m/S 755 mmHg 52%
    11:00 +27°C° 0 mm 1 m/S 754 mmHg 48%
    12:00 +27°C° 0 mm 1 m/S 754 mmHg 45%
    13:00 +28°C° 0 mm 1 m/S 754 mmHg 41%
    14:00 +29°C° 0 mm 2 m/S 754 mmHg 41%
    15:00 +29°C° 0 mm 2 m/S 754 mmHg 41%
    16:00 +29°C° 0 mm 2 m/S 753 mmHg 42%
    17:00 +28°C° 0 mm 2 m/S 753 mmHg 48%
    18:00 +26°C° 0 mm 2 m/S 754 mmHg 54%
    19:00 +25°C° 0 mm 2 m/S 754 mmHg 61%
    20:00 +24°C° 0 mm 2 m/S 754 mmHg 65%
    21:00 +21°C° 0 mm 2 m/S 754 mmHg 69%
    22:00 +20°C° 0 mm 2 m/S 754 mmHg 74%
    23:00 +21°C° 0 mm 1 m/S 754 mmHg 76%

    23 Juli, Montag

    Zeit Temperatur Niederschläge Wind Luftdruck Luftfeuchtigkeit
    00:00 +20°C° 0 mm 1 m/S 754 mmHg 78%
    01:00 +19°C° 0 mm 1 m/S 754 mmHg 79%
    02:00 +19°C° 0 mm 1 m/S 754 mmHg 81%
    03:00 +19°C° 0 mm 1 m/S 754 mmHg 82%
    04:00 +17°C° 0 mm 0 m/S 754 mmHg 83%
    05:00 +20°C° 0,1 mm 1 m/S 754 mmHg 79%
    06:00 +21°C° 0,1 mm 1 m/S 755 mmHg 74%
    07:00 +23°C° 0,1 mm 1 m/S 755 mmHg 70%
    08:00 +24°C° 0,2 mm 1 m/S 755 mmHg 64%
    09:00 +25°C° 0,2 mm 2 m/S 755 mmHg 58%
    10:00 +27°C° 0,2 mm 2 m/S 755 mmHg 52%
    11:00 +27°C° 0,1 mm 2 m/S 755 mmHg 51%
    12:00 +28°C° 0,1 mm 3 m/S 755 mmHg 49%
    13:00 +29°C° 0,1 mm 3 m/S 754 mmHg 47%
    14:00 +28°C° 0,2 mm 3 m/S 754 mmHg 50%
    15:00 +28°C° 0,2 mm 3 m/S 754 mmHg 53%
    16:00 +27°C° 0,2 mm 3 m/S 754 mmHg 56%
    17:00 +26°C° 0,2 mm 3 m/S 754 mmHg 60%
    18:00 +26°C° 0,2 mm 2 m/S 754 mmHg 63%
    19:00 +25°C° 0,2 mm 2 m/S 754 mmHg 67%
    20:00 +23°C° 0 mm 2 m/S 755 mmHg 71%
    21:00 +22°C° 0 mm 1 m/S 755 mmHg 75%
    22:00 +21°C° 0 mm 1 m/S 755 mmHg 80%
    23:00 +20°C° 0 mm 1 m/S 755 mmHg 81%

    24 Juli, Dienstag

    Zeit Temperatur Niederschläge Wind Luftdruck Luftfeuchtigkeit
    00:00 +20°C° 0 mm 1 m/S 755 mmHg 83%
    01:00 +19°C° 0 mm 1 m/S 755 mmHg 85%
    02:00 +19°C° 0 mm 1 m/S 755 mmHg 87%
    03:00 +18°C° 0 mm 1 m/S 755 mmHg 89%
    04:00 +18°C° 0 mm 1 m/S 755 mmHg 91%
    05:00 +19°C° 0 mm 1 m/S 755 mmHg 86%
    06:00 +21°C° 0 mm 1 m/S 755 mmHg 81%
    07:00 +22°C° 0 mm 1 m/S 755 mmHg 77%
    08:00 +23°C° 0,1 mm 2 m/S 755 mmHg 71%
    09:00 +25°C° 0,1 mm 2 m/S 755 mmHg 66%
    10:00 +26°C° 0,1 mm 3 m/S 755 mmHg 60%
    11:00 +27°C° 0,1 mm 3 m/S 754 mmHg 58%
    12:00 +27°C° 0,1 mm 3 m/S 754 mmHg 57%
    13:00 +28°C° 0,1 mm 3 m/S 754 mmHg 55%
    14:00 +28°C° 0,1 mm 3 m/S 754 mmHg 55%
    15:00 +28°C° 0,1 mm 3 m/S 754 mmHg 55%
    16:00 +28°C° 0,1 mm 3 m/S 754 mmHg 55%
    17:00 +27°C° 0,1 mm 2 m/S 754 mmHg 60%
    18:00 +26°C° 0,1 mm 2 m/S 754 mmHg 65%
    19:00 +25°C° 0,1 mm 2 m/S 754 mmHg 70%
    20:00 +24°C° 0 mm 2 m/S 754 mmHg 75%
    21:00 +23°C° 0 mm 2 m/S 754 mmHg 80%
    22:00 +21°C° 0 mm 1 m/S 754 mmHg 86%
    23:00 +21°C° 0 mm 1 m/S 754 mmHg 87%

    25 Juli, Mittwoch

    Zeit Temperatur Niederschläge Wind Luftdruck Luftfeuchtigkeit
    00:00 +20°C° 0 mm 1 m/S 754 mmHg 89%
    01:00 +20°C° 0 mm 1 m/S 754 mmHg 91%
    02:00 +19°C° 0 mm 1 m/S 754 mmHg 91%
    03:00 +19°C° 0 mm 1 m/S 754 mmHg 92%
    04:00 +19°C° 0 mm 1 m/S 754 mmHg 93%
    05:00 +20°C° 0 mm 1 m/S 755 mmHg 87%
    06:00 +22°C° 0 mm 1 m/S 755 mmHg 82%
    07:00 +23°C° 0 mm 1 m/S 755 mmHg 76%
    08:00 +25°C° 0 mm 1 m/S 755 mmHg 68%
    09:00 +27°C° 0 mm 1 m/S 755 mmHg 61%
    10:00 +28°C° 0 mm 1 m/S 755 mmHg 53%
    11:00 +29°C° 0 mm 1 m/S 755 mmHg 49%
    12:00 +30°C° 0 mm 2 m/S 754 mmHg 46%
    13:00 +31°C° 0 mm 2 m/S 754 mmHg 42%
    14:00 +30°C° 0 mm 2 m/S 754 mmHg 43%
    15:00 +30°C° 0 mm 2 m/S 754 mmHg 44%
    16:00 +30°C° 0 mm 2 m/S 754 mmHg 45%
    17:00 +29°C° 0 mm 2 m/S 754 mmHg 50%
    18:00 +28°C° 0 mm 2 m/S 754 mmHg 55%
    19:00 +27°C° 0 mm 1 m/S 754 mmHg 60%
    20:00 +26°C° 0 mm 1 m/S 754 mmHg 66%
    21:00 +24°C° 0 mm 1 m/S 755 mmHg 71%
    22:00 +23°C° 0 mm 1 m/S 755 mmHg 76%
    23:00 +22°C° 0 mm 1 m/S 755 mmHg 79%
    Mehr zeigen